Year,Month,Day,Hour,Minute,Value (Times are PST for temperature in C)
2009,02,25,00,00,6.60
2009,02,25,00,01,6.60
2009,02,25,00,02,6.60
2009,02,25,00,03,6.60
2009,02,25,00,04,6.60
2009,02,25,00,05,6.60
2009,02,25,00,06,6.60
2009,02,25,00,07,6.60
2009,02,25,00,08,6.60
2009,02,25,00,09,6.60
2009,02,25,00,10,6.60
2009,02,25,00,11,6.60
2009,02,25,00,12,6.60
2009,02,25,01,02,5.60
2009,02,25,01,03,5.60
2009,02,25,01,04,5.60
2009,02,25,01,05,5.60
2009,02,25,01,06,5.60
2009,02,25,01,07,5.60
2009,02,25,01,08,5.70
2009,02,25,01,09,5.70
2009,02,25,01,10,5.70
2009,02,25,01,11,5.70
2009,02,25,01,12,5.70
2009,02,25,01,13,5.70
2009,02,25,01,14,5.70
2009,02,25,01,15,5.70
2009,02,25,01,16,5.70
2009,02,25,01,17,5.70
2009,02,25,01,18,5.70
2009,02,25,01,19,5.70
2009,02,25,01,20,5.80
2009,02,25,01,21,5.80
2009,02,25,01,22,5.80
2009,02,25,01,23,5.80
2009,02,25,01,24,5.80
2009,02,25,01,25,5.80
2009,02,25,01,26,5.80
2009,02,25,01,27,5.80
2009,02,25,01,28,5.80
2009,02,25,01,29,5.80
2009,02,25,01,30,5.80
2009,02,25,01,31,5.80
2009,02,25,01,32,5.80
2009,02,25,01,33,5.80
2009,02,25,01,34,5.80
2009,02,25,01,35,5.70
2009,02,25,01,36,5.70
2009,02,25,01,37,5.60
2009,02,25,01,38,5.60
2009,02,25,01,39,5.50
2009,02,25,01,40,5.40
2009,02,25,01,41,5.40
2009,02,25,01,42,5.40
2009,02,25,01,43,5.40
2009,02,25,01,44,5.40
2009,02,25,01,45,5.40
2009,02,25,01,46,5.40
2009,02,25,01,47,5.40
2009,02,25,01,48,5.40
2009,02,25,01,49,5.30
2009,02,25,01,50,5.30
2009,02,25,01,51,5.30
2009,02,25,01,52,5.30
2009,02,25,01,53,5.30
2009,02,25,01,54,5.30
2009,02,25,01,55,5.30
2009,02,25,01,56,5.30
2009,02,25,01,57,5.30
2009,02,25,01,58,5.30
2009,02,25,01,59,5.30
2009,02,25,02,00,5.30
2009,02,25,02,01,5.20
2009,02,25,02,02,5.20
2009,02,25,02,03,5.30
2009,02,25,02,04,5.20
2009,02,25,02,05,5.20
2009,02,25,02,06,5.20
2009,02,25,02,07,5.20
2009,02,25,02,08,5.20
2009,02,25,02,09,5.20
2009,02,25,02,10,5.20
2009,02,25,02,11,5.20
2009,02,25,02,12,5.20
2009,02,25,02,13,5.20
2009,02,25,02,14,5.20
2009,02,25,02,15,5.20
2009,02,25,02,16,5.20
2009,02,25,02,17,5.20
2009,02,25,02,18,5.20
2009,02,25,02,19,5.20
2009,02,25,02,20,5.20
2009,02,25,02,21,5.20
2009,02,25,02,22,5.20
2009,02,25,02,23,5.20
2009,02,25,02,24,5.20
2009,02,25,02,25,5.20
2009,02,25,02,26,5.20
2009,02,25,02,27,5.20
2009,02,25,02,28,5.20
2009,02,25,02,29,5.20
2009,02,25,02,30,5.20
2009,02,25,02,31,5.20
2009,02,25,02,32,5.20
2009,02,25,02,33,5.20
2009,02,25,02,34,5.20
2009,02,25,02,35,5.10
2009,02,25,02,36,5.10
2009,02,25,02,37,5.10
2009,02,25,02,38,5.10
2009,02,25,02,39,5.10
2009,02,25,02,40,5.10
2009,02,25,02,41,5.10
2009,02,25,02,42,5.10
2009,02,25,02,43,5.10
2009,02,25,02,44,5.00
2009,02,25,02,45,5.00
2009,02,25,02,46,5.00
2009,02,25,02,47,4.90
2009,02,25,02,48,4.90
2009,02,25,02,49,4.90
2009,02,25,02,50,4.90
2009,02,25,02,51,4.80
2009,02,25,02,52,4.80
2009,02,25,02,53,4.80
2009,02,25,02,54,4.80
2009,02,25,02,55,4.70
2009,02,25,02,56,4.70
2009,02,25,02,57,4.60
2009,02,25,02,58,4.60
2009,02,25,02,59,4.60
2009,02,25,03,00,4.60
2009,02,25,03,01,4.60
2009,02,25,03,02,4.50
2009,02,25,03,03,4.50
2009,02,25,03,04,4.50
2009,02,25,03,05,4.50
2009,02,25,03,06,4.40
2009,02,25,03,07,4.40
2009,02,25,03,08,4.30
2009,02,25,03,09,4.30
2009,02,25,03,10,4.30
2009,02,25,03,11,4.30
2009,02,25,03,12,4.30
2009,02,25,03,13,4.30
2009,02,25,03,14,4.30
2009,02,25,03,15,4.30
2009,02,25,03,16,4.30
2009,02,25,03,17,4.20
2009,02,25,03,18,4.20
2009,02,25,03,19,4.20
2009,02,25,03,20,4.20
2009,02,25,03,21,4.20
2009,02,25,03,22,4.20
2009,02,25,03,23,4.20
2009,02,25,03,24,4.20
2009,02,25,03,25,4.10
2009,02,25,03,26,4.10
2009,02,25,03,27,4.10
2009,02,25,03,28,4.10
2009,02,25,03,29,4.10
2009,02,25,03,30,4.10
2009,02,25,03,31,4.10
2009,02,25,03,32,4.10
2009,02,25,03,33,4.10
2009,02,25,03,34,4.10
2009,02,25,03,35,4.10
2009,02,25,03,36,4.10
2009,02,25,03,37,4.10
2009,02,25,03,38,4.10
2009,02,25,03,39,4.10
2009,02,25,03,40,4.10
2009,02,25,03,41,4.10
2009,02,25,03,42,4.10
2009,02,25,03,43,4.10
2009,02,25,03,44,4.10
2009,02,25,03,45,4.10
2009,02,25,03,46,4.20
2009,02,25,03,47,4.10
2009,02,25,03,48,4.20
2009,02,25,03,49,4.20
2009,02,25,03,50,4.20
2009,02,25,03,51,4.20
2009,02,25,03,52,4.20
2009,02,25,03,53,4.20
2009,02,25,03,54,4.20
2009,02,25,03,55,4.20
2009,02,25,03,56,4.20
2009,02,25,03,57,4.20
2009,02,25,03,58,4.20
2009,02,25,03,59,4.20
2009,02,25,04,00,4.20
2009,02,25,04,01,4.20
2009,02,25,04,02,4.20
2009,02,25,04,03,4.20
2009,02,25,04,04,4.20
2009,02,25,04,05,4.20
2009,02,25,04,06,4.20
2009,02,25,04,07,4.20
2009,02,25,04,08,4.20
2009,02,25,04,09,4.20
2009,02,25,04,10,4.20
2009,02,25,04,11,4.20
2009,02,25,04,12,4.10
2009,02,25,04,13,4.10
2009,02,25,04,14,4.10
2009,02,25,04,15,4.10
2009,02,25,04,16,4.10
2009,02,25,04,17,4.10
2009,02,25,04,18,4.10
2009,02,25,04,19,4.10
2009,02,25,04,20,4.10
2009,02,25,04,21,4.10
2009,02,25,04,22,4.10
2009,02,25,04,23,4.10
2009,02,25,04,24,4.10
2009,02,25,04,25,4.10
2009,02,25,04,26,4.10
2009,02,25,04,27,4.10
2009,02,25,04,28,4.10
2009,02,25,04,29,4.10
2009,02,25,04,30,4.10
2009,02,25,04,31,4.10
2009,02,25,04,32,4.10
2009,02,25,04,33,4.10
2009,02,25,04,34,4.00
2009,02,25,04,35,4.00
2009,02,25,04,36,4.00
2009,02,25,04,37,4.00
2009,02,25,04,38,4.00
2009,02,25,04,39,4.00
2009,02,25,04,40,4.00
2009,02,25,04,41,4.00
2009,02,25,04,42,4.00
2009,02,25,04,43,3.90
2009,02,25,04,44,3.90
2009,02,25,04,45,3.90
2009,02,25,04,46,3.90
2009,02,25,04,47,3.90
2009,02,25,04,48,3.90
2009,02,25,04,49,3.90
2009,02,25,04,50,3.90
2009,02,25,04,51,3.90
2009,02,25,04,52,3.90
2009,02,25,04,53,3.90
2009,02,25,04,54,3.90
2009,02,25,04,55,3.90
2009,02,25,04,56,3.90
2009,02,25,04,57,3.90
2009,02,25,04,58,3.90
2009,02,25,04,59,3.90
2009,02,25,05,00,3.90
2009,02,25,05,01,3.90
2009,02,25,05,02,3.90
2009,02,25,05,03,3.90
2009,02,25,05,04,4.00
2009,02,25,05,05,4.00
2009,02,25,05,06,4.00
2009,02,25,05,07,4.00
2009,02,25,05,08,4.00
2009,02,25,05,09,4.00
2009,02,25,05,10,4.10
2009,02,25,05,11,4.10
2009,02,25,05,12,4.10
2009,02,25,05,13,4.10
2009,02,25,05,14,4.10
2009,02,25,05,15,4.10
2009,02,25,05,16,4.10
2009,02,25,05,17,4.10
2009,02,25,05,18,4.10
2009,02,25,05,19,4.10
2009,02,25,05,20,4.10
2009,02,25,05,21,4.10
2009,02,25,05,22,4.10
2009,02,25,05,23,4.10
2009,02,25,05,24,4.10
2009,02,25,05,25,4.10
2009,02,25,05,26,4.10
2009,02,25,05,27,4.20
2009,02,25,05,28,4.20
2009,02,25,05,29,4.20
2009,02,25,05,30,4.20
2009,02,25,05,31,4.20
2009,02,25,05,32,4.20
2009,02,25,05,33,4.20
2009,02,25,05,34,4.30
2009,02,25,05,35,4.30
2009,02,25,05,36,4.30
2009,02,25,05,37,4.30
2009,02,25,05,38,4.30
2009,02,25,05,39,4.30
2009,02,25,05,40,4.30
2009,02,25,05,41,4.30
2009,02,25,05,42,4.30
2009,02,25,05,43,4.30
2009,02,25,05,44,4.30
2009,02,25,05,45,4.30
2009,02,25,05,46,4.30
2009,02,25,05,47,4.30
2009,02,25,05,48,4.30
2009,02,25,05,49,4.30
2009,02,25,05,50,4.30
2009,02,25,05,51,4.30
2009,02,25,05,52,4.20
2009,02,25,05,53,4.20
2009,02,25,05,54,4.20
2009,02,25,05,55,4.20
2009,02,25,05,56,4.20
2009,02,25,05,57,4.20
2009,02,25,05,58,4.20
2009,02,25,05,59,4.20
2009,02,25,06,00,4.20
2009,02,25,06,01,4.20
2009,02,25,06,02,4.20
2009,02,25,06,03,4.20
2009,02,25,06,04,4.20
2009,02,25,06,05,4.20
2009,02,25,06,06,4.20
2009,02,25,06,07,4.20
2009,02,25,06,08,4.20
2009,02,25,06,09,4.20
2009,02,25,06,10,4.20
2009,02,25,06,11,4.20
2009,02,25,06,12,4.20
2009,02,25,06,13,4.20
2009,02,25,06,14,4.20
2009,02,25,06,15,4.10
2009,02,25,06,16,4.10
2009,02,25,06,17,4.10
2009,02,25,06,18,4.10
2009,02,25,06,19,4.10
2009,02,25,06,20,4.10
2009,02,25,06,21,4.10
2009,02,25,06,22,4.10
2009,02,25,06,23,4.10
2009,02,25,06,24,4.10
2009,02,25,06,25,4.10
2009,02,25,06,26,4.10
2009,02,25,06,27,4.20
2009,02,25,06,28,4.20
2009,02,25,06,29,4.20
2009,02,25,06,30,4.20
2009,02,25,06,31,4.20
2009,02,25,06,32,4.20
2009,02,25,06,33,4.20
2009,02,25,06,34,4.20
2009,02,25,06,35,4.20
2009,02,25,06,36,4.20
2009,02,25,06,37,4.20
2009,02,25,06,38,4.20
2009,02,25,06,39,4.20
2009,02,25,06,40,4.20
2009,02,25,06,41,4.20
2009,02,25,06,42,4.20
2009,02,25,06,43,4.20
2009,02,25,06,44,4.20
2009,02,25,06,45,4.20
2009,02,25,06,46,4.20
2009,02,25,06,47,4.20
2009,02,25,06,48,4.20
2009,02,25,06,49,4.20
2009,02,25,06,50,4.20
2009,02,25,06,51,4.20
2009,02,25,06,52,4.20
2009,02,25,06,53,4.20
2009,02,25,06,54,4.20
2009,02,25,06,55,4.20
2009,02,25,06,56,4.20
2009,02,25,06,57,4.20
2009,02,25,06,58,4.20
2009,02,25,06,59,4.20
2009,02,25,07,00,4.20
2009,02,25,07,01,4.20
2009,02,25,07,02,4.20
2009,02,25,07,03,4.20
2009,02,25,07,04,4.20
2009,02,25,07,05,4.20
2009,02,25,07,06,4.20
2009,02,25,07,07,4.10
2009,02,25,07,08,4.10
2009,02,25,07,09,4.10
2009,02,25,07,10,4.10
2009,02,25,07,11,4.10
2009,02,25,07,12,4.10
2009,02,25,07,13,4.10
2009,02,25,07,14,4.10
2009,02,25,07,15,4.10
2009,02,25,07,16,4.00
2009,02,25,07,17,4.00
2009,02,25,07,18,4.00
2009,02,25,07,19,4.00
2009,02,25,07,20,4.00
2009,02,25,07,21,4.00
2009,02,25,07,22,4.00
2009,02,25,07,23,4.00
2009,02,25,07,24,3.90
2009,02,25,07,25,3.90
2009,02,25,07,26,3.90
2009,02,25,07,27,3.90
2009,02,25,07,28,3.90
2009,02,25,07,29,3.90
2009,02,25,07,30,3.80
2009,02,25,07,31,3.80
2009,02,25,07,32,3.80
2009,02,25,07,33,3.80
2009,02,25,07,34,3.80
2009,02,25,07,35,3.80
2009,02,25,07,36,3.80
2009,02,25,07,37,3.80
2009,02,25,07,38,3.80
2009,02,25,07,39,3.80
2009,02,25,07,40,3.70
2009,02,25,07,41,3.70
2009,02,25,07,42,3.60
2009,02,25,07,43,3.60
2009,02,25,07,44,3.60
2009,02,25,07,45,3.60
2009,02,25,07,46,3.60
2009,02,25,07,47,3.50
2009,02,25,07,48,3.60
2009,02,25,07,49,3.60
2009,02,25,07,50,3.60
2009,02,25,07,51,3.60
2009,02,25,07,52,3.60
2009,02,25,07,53,3.60
2009,02,25,07,54,3.60
2009,02,25,07,55,3.60
2009,02,25,07,56,3.60
2009,02,25,07,57,3.60
2009,02,25,07,58,3.60
2009,02,25,07,59,3.50
2009,02,25,08,00,3.50
2009,02,25,08,01,3.50
2009,02,25,08,02,3.50
2009,02,25,08,03,3.50
2009,02,25,08,04,3.50
2009,02,25,08,05,3.50
2009,02,25,08,06,3.50
2009,02,25,08,07,3.50
2009,02,25,08,08,3.50
2009,02,25,08,09,3.50
2009,02,25,08,10,3.50
2009,02,25,08,11,3.60
2009,02,25,08,12,3.50
2009,02,25,08,13,3.60
2009,02,25,08,14,3.60
2009,02,25,08,15,3.60
2009,02,25,08,16,3.60
2009,02,25,08,17,3.60
2009,02,25,08,18,3.60
2009,02,25,08,19,3.60
2009,02,25,08,20,3.60
2009,02,25,08,21,3.60
2009,02,25,08,22,3.60
2009,02,25,08,23,3.60
2009,02,25,08,24,3.60
2009,02,25,08,25,3.60
2009,02,25,08,26,3.60
2009,02,25,08,27,3.60
2009,02,25,08,28,3.60
2009,02,25,08,29,3.60
2009,02,25,08,30,3.60
2009,02,25,08,31,3.60
2009,02,25,08,32,3.60
2009,02,25,08,33,3.60
2009,02,25,08,34,3.60
2009,02,25,08,35,3.60
2009,02,25,08,36,3.60
2009,02,25,08,37,3.60
2009,02,25,08,38,3.50
2009,02,25,08,39,3.50
2009,02,25,08,40,3.50
2009,02,25,08,41,3.40
2009,02,25,08,42,3.40
2009,02,25,08,43,3.30
2009,02,25,08,44,3.30
2009,02,25,08,45,3.30
2009,02,25,08,46,3.30
2009,02,25,08,47,3.30
2009,02,25,08,48,3.20
2009,02,25,08,49,3.20
2009,02,25,08,50,3.20
2009,02,25,08,51,3.20
2009,02,25,08,52,3.20
2009,02,25,08,53,3.20
2009,02,25,08,54,3.20
2009,02,25,08,55,3.10
2009,02,25,08,56,3.10
2009,02,25,08,57,3.10
2009,02,25,08,58,3.10
2009,02,25,08,59,3.10
2009,02,25,09,00,3.10
2009,02,25,09,01,3.00
2009,02,25,09,02,3.00
2009,02,25,09,03,3.00
2009,02,25,09,04,3.00
2009,02,25,09,05,3.00
2009,02,25,09,06,3.00
2009,02,25,09,07,3.00
2009,02,25,09,08,3.00
2009,02,25,09,09,3.00
2009,02,25,09,10,3.00
2009,02,25,09,11,3.10
2009,02,25,09,12,3.10
2009,02,25,09,13,3.10
2009,02,25,09,14,3.10
2009,02,25,09,15,3.10
2009,02,25,09,16,3.10
2009,02,25,09,17,3.10
2009,02,25,09,18,3.20
2009,02,25,09,19,3.20
2009,02,25,09,20,3.20
2009,02,25,09,21,3.20
2009,02,25,09,22,3.30
2009,02,25,09,23,3.30
2009,02,25,09,24,3.30
2009,02,25,09,25,3.30
2009,02,25,09,26,3.30
2009,02,25,09,27,3.40
2009,02,25,09,28,3.40
2009,02,25,09,29,3.40
2009,02,25,09,30,3.40
2009,02,25,09,31,3.40
2009,02,25,09,32,3.40
2009,02,25,09,33,3.40
2009,02,25,09,34,3.40
2009,02,25,09,35,3.40
2009,02,25,09,36,3.40
2009,02,25,09,37,3.40
2009,02,25,09,38,3.40
2009,02,25,09,39,3.50
2009,02,25,09,40,3.50
2009,02,25,09,41,3.50
2009,02,25,09,42,3.50
2009,02,25,09,43,3.40
2009,02,25,09,44,3.20
2009,02,25,09,45,3.00
2009,02,25,09,46,2.90
2009,02,25,09,47,2.70
2009,02,25,09,48,2.50
2009,02,25,09,49,2.40
2009,02,25,09,50,2.20
2009,02,25,09,51,2.00
2009,02,25,09,52,2.00
2009,02,25,09,53,1.90
2009,02,25,09,54,1.80
2009,02,25,09,55,1.80
2009,02,25,09,56,1.70
2009,02,25,09,57,1.60
2009,02,25,09,58,1.50
2009,02,25,09,59,1.40
2009,02,25,10,00,1.30
2009,02,25,10,01,1.30
2009,02,25,10,02,1.30
2009,02,25,10,03,1.30
2009,02,25,10,04,1.30
2009,02,25,10,05,1.30
2009,02,25,10,06,1.30
2009,02,25,10,07,1.30
2009,02,25,10,08,1.30
2009,02,25,10,09,1.30
2009,02,25,10,10,1.30
2009,02,25,10,11,1.30
2009,02,25,10,12,1.30
2009,02,25,10,13,1.30
2009,02,25,10,14,1.30
2009,02,25,10,15,1.40
2009,02,25,10,16,1.40
2009,02,25,10,17,1.40
2009,02,25,10,18,1.50
2009,02,25,10,19,1.50
2009,02,25,10,20,1.60
2009,02,25,10,21,1.60
2009,02,25,10,22,1.60
2009,02,25,10,23,1.60
2009,02,25,10,24,1.60
2009,02,25,10,25,1.60
2009,02,25,10,26,1.60
2009,02,25,10,27,1.60
2009,02,25,10,28,1.60
2009,02,25,10,29,1.60
2009,02,25,10,30,1.50
2009,02,25,10,31,1.50
2009,02,25,10,32,1.50
2009,02,25,10,33,1.60
2009,02,25,10,34,1.60
2009,02,25,10,35,1.60
2009,02,25,10,36,1.60
2009,02,25,10,37,1.70
2009,02,25,10,38,1.70
2009,02,25,10,39,1.70
2009,02,25,10,40,1.70
2009,02,25,10,41,1.80
2009,02,25,10,42,1.80
2009,02,25,10,43,1.80
2009,02,25,10,44,1.80
2009,02,25,10,45,1.80
2009,02,25,10,46,1.80
2009,02,25,10,47,1.80
2009,02,25,10,48,1.80
2009,02,25,10,49,1.80
2009,02,25,10,50,1.80
2009,02,25,10,51,1.80
2009,02,25,10,52,1.80
2009,02,25,10,53,1.80
2009,02,25,10,54,1.90
2009,02,25,10,55,1.90
2009,02,25,10,56,1.90
2009,02,25,10,57,2.00
2009,02,25,10,58,2.00
2009,02,25,10,59,2.00
2009,02,25,11,00,2.00
2009,02,25,11,01,2.10
2009,02,25,11,02,2.10
2009,02,25,11,03,2.10
2009,02,25,11,04,2.10
2009,02,25,11,05,2.10
2009,02,25,11,06,2.10
2009,02,25,11,07,2.20
2009,02,25,11,08,2.20
2009,02,25,11,09,2.20
2009,02,25,11,10,2.20
2009,02,25,11,11,2.20
2009,02,25,11,12,2.20
2009,02,25,11,13,2.30
2009,02,25,11,14,2.30
2009,02,25,11,15,2.30
2009,02,25,11,16,2.40
2009,02,25,11,17,2.40
2009,02,25,11,18,2.50
2009,02,25,11,19,2.50
2009,02,25,11,20,2.50
2009,02,25,11,21,2.50
2009,02,25,11,22,2.60
2009,02,25,11,23,2.60
2009,02,25,11,24,2.60
2009,02,25,11,25,2.60
2009,02,25,11,26,2.60
2009,02,25,11,27,2.70
2009,02,25,11,28,2.70
2009,02,25,11,29,2.70
2009,02,25,11,30,2.70
2009,02,25,11,31,2.70
2009,02,25,11,32,2.60
2009,02,25,11,33,2.60
2009,02,25,11,34,2.70
2009,02,25,11,35,2.60
2009,02,25,11,36,2.60
2009,02,25,11,37,2.60
2009,02,25,11,38,2.50
2009,02,25,11,39,2.50
2009,02,25,11,40,2.60
2009,02,25,11,41,2.60
2009,02,25,11,42,2.70
2009,02,25,11,43,2.70
2009,02,25,11,44,2.70
2009,02,25,11,45,2.80
2009,02,25,11,46,2.80
2009,02,25,11,47,2.80
2009,02,25,11,48,2.90
2009,02,25,11,49,2.90
2009,02,25,11,50,3.00
2009,02,25,11,51,3.00
2009,02,25,11,52,3.00
2009,02,25,11,53,2.90
2009,02,25,11,54,3.00
2009,02,25,11,55,3.00
2009,02,25,11,56,3.00
2009,02,25,11,57,3.10
2009,02,25,11,58,3.10
2009,02,25,11,59,3.20
2009,02,25,12,00,3.20
2009,02,25,12,01,3.20
2009,02,25,12,02,3.30
2009,02,25,12,03,3.30
2009,02,25,12,04,3.30
2009,02,25,12,05,3.30
2009,02,25,12,06,3.40
2009,02,25,12,07,3.40
2009,02,25,12,08,3.40
2009,02,25,12,09,3.40
2009,02,25,12,10,3.40
2009,02,25,12,11,3.40
2009,02,25,12,12,3.40
2009,02,25,12,13,3.40
2009,02,25,12,14,3.40
2009,02,25,12,15,3.40
2009,02,25,12,16,3.40
2009,02,25,12,17,3.40
2009,02,25,12,18,3.30
2009,02,25,12,19,3.30
2009,02,25,12,20,3.20
2009,02,25,12,21,3.10
2009,02,25,12,22,3.00
2009,02,25,12,23,2.90
2009,02,25,12,24,2.80
2009,02,25,12,25,2.70
2009,02,25,12,26,2.60
2009,02,25,12,27,2.50
2009,02,25,12,28,2.50
2009,02,25,12,29,2.50
2009,02,25,12,30,2.40
2009,02,25,12,31,2.40
2009,02,25,12,32,2.40
2009,02,25,12,33,2.40
2009,02,25,12,34,2.40
2009,02,25,12,35,2.40
2009,02,25,12,36,2.30
2009,02,25,12,37,2.30
2009,02,25,12,38,2.30
2009,02,25,12,39,2.30
2009,02,25,12,40,2.30
2009,02,25,12,41,2.30
2009,02,25,12,42,2.40
2009,02,25,12,43,2.40
2009,02,25,12,44,2.40
2009,02,25,12,45,2.40
2009,02,25,12,46,2.40
2009,02,25,12,47,2.40
2009,02,25,12,48,2.40
2009,02,25,12,49,2.40
2009,02,25,12,50,2.40
2009,02,25,12,51,2.40
2009,02,25,12,52,2.40
2009,02,25,12,53,2.40
2009,02,25,12,54,2.40
2009,02,25,12,55,2.40
2009,02,25,12,56,2.40
2009,02,25,12,57,2.40
2009,02,25,12,58,2.40
2009,02,25,12,59,2.40
2009,02,25,13,00,2.40
2009,02,25,13,01,2.40
2009,02,25,13,02,2.40
2009,02,25,13,03,2.40
2009,02,25,13,04,2.40
2009,02,25,13,05,2.40
2009,02,25,13,06,2.40
2009,02,25,13,07,2.40
2009,02,25,13,08,2.40
2009,02,25,13,09,2.40
2009,02,25,13,10,2.50
2009,02,25,13,11,2.50
2009,02,25,13,12,2.50
2009,02,25,13,13,2.50
2009,02,25,13,14,2.50
2009,02,25,13,15,2.60
2009,02,25,13,16,2.60
2009,02,25,13,17,2.60
2009,02,25,13,18,2.70
2009,02,25,13,19,2.70
2009,02,25,13,20,2.70
2009,02,25,13,21,2.80
2009,02,25,13,22,2.80
2009,02,25,13,23,2.80
2009,02,25,13,24,2.80
2009,02,25,13,25,2.90
2009,02,25,13,26,2.90
2009,02,25,13,27,2.90
2009,02,25,13,28,2.90
2009,02,25,13,29,2.90
2009,02,25,13,30,3.00
2009,02,25,13,31,2.90
2009,02,25,13,32,3.00
2009,02,25,13,33,3.00
2009,02,25,13,34,3.00
2009,02,25,13,35,3.00
2009,02,25,13,36,3.00
2009,02,25,13,37,3.00
2009,02,25,13,38,3.00
2009,02,25,13,39,3.00
2009,02,25,13,40,3.00
2009,02,25,13,41,2.90
2009,02,25,13,42,2.90
2009,02,25,13,43,3.00
2009,02,25,13,44,3.00
2009,02,25,13,45,3.00
2009,02,25,13,46,3.00
2009,02,25,13,47,3.00
2009,02,25,13,48,3.00
2009,02,25,13,49,3.00
2009,02,25,13,50,3.00
2009,02,25,13,51,3.00
2009,02,25,13,52,3.00
2009,02,25,13,53,3.10
2009,02,25,13,54,3.10
2009,02,25,13,55,3.00
2009,02,25,13,56,3.00
2009,02,25,13,57,3.00
2009,02,25,13,58,2.90
2009,02,25,13,59,2.90
2009,02,25,14,00,2.80
2009,02,25,14,01,2.70
2009,02,25,14,02,2.60
2009,02,25,14,03,2.50
2009,02,25,14,04,2.50
2009,02,25,14,05,2.40
2009,02,25,14,06,2.30
2009,02,25,14,07,2.20
2009,02,25,14,08,2.20
2009,02,25,14,09,2.10
2009,02,25,14,10,2.10
2009,02,25,14,11,2.00
2009,02,25,14,12,2.00
2009,02,25,14,13,1.90
2009,02,25,14,14,1.80
2009,02,25,14,15,1.70
2009,02,25,14,16,1.70
2009,02,25,14,17,1.70
2009,02,25,14,18,1.60
2009,02,25,14,19,1.60
2009,02,25,14,20,1.60
2009,02,25,14,21,1.60
2009,02,25,14,22,1.50
2009,02,25,14,23,1.50
2009,02,25,14,24,1.50
2009,02,25,14,25,1.50
2009,02,25,14,26,1.60
2009,02,25,14,27,1.60
2009,02,25,14,28,1.60
2009,02,25,14,29,1.60
2009,02,25,14,30,1.60
2009,02,25,14,31,1.60
2009,02,25,14,32,1.60
2009,02,25,14,33,1.60
2009,02,25,14,34,1.60
2009,02,25,14,35,1.60
2009,02,25,14,36,1.70
2009,02,25,14,37,1.70
2009,02,25,14,38,1.70
2009,02,25,14,39,1.70
2009,02,25,14,40,1.70
2009,02,25,14,41,1.70
2009,02,25,14,42,1.70
2009,02,25,14,43,1.60
2009,02,25,14,44,1.60
2009,02,25,14,45,1.60
2009,02,25,14,46,1.60
2009,02,25,14,47,1.60
2009,02,25,14,48,1.50
2009,02,25,14,49,1.50
2009,02,25,14,50,1.50
2009,02,25,14,51,1.50
2009,02,25,14,52,1.50
2009,02,25,14,53,1.60
2009,02,25,14,54,1.60
2009,02,25,14,55,1.70
2009,02,25,14,56,1.70
2009,02,25,14,57,1.80
2009,02,25,14,58,1.80
2009,02,25,14,59,1.80
2009,02,25,15,00,1.80
2009,02,25,15,01,1.80
2009,02,25,15,02,1.90
2009,02,25,15,03,1.90
2009,02,25,15,04,1.90
2009,02,25,15,05,1.90
2009,02,25,15,06,1.80
2009,02,25,15,07,1.90
2009,02,25,15,08,1.90
2009,02,25,15,09,1.90
2009,02,25,15,10,1.90
2009,02,25,15,11,2.00
2009,02,25,15,12,2.10
2009,02,25,15,13,2.30
2009,02,25,15,14,2.40
2009,02,25,15,15,2.50
2009,02,25,15,16,2.60
2009,02,25,15,17,2.70
2009,02,25,15,18,2.80
2009,02,25,15,19,2.90
2009,02,25,15,20,3.00
2009,02,25,15,21,3.10
2009,02,25,15,22,3.20
2009,02,25,15,23,3.20
2009,02,25,15,24,3.20
2009,02,25,15,25,3.20
2009,02,25,15,26,3.20
2009,02,25,15,27,3.20
2009,02,25,15,28,3.10
2009,02,25,15,29,3.10
2009,02,25,15,30,3.00
2009,02,25,15,31,3.00
2009,02,25,15,32,2.90
2009,02,25,15,33,2.80
2009,02,25,15,34,2.70
2009,02,25,15,35,2.70
2009,02,25,15,36,2.70
2009,02,25,15,37,2.60
2009,02,25,15,38,2.60
2009,02,25,15,39,2.60
2009,02,25,15,40,2.60
2009,02,25,15,41,2.60
2009,02,25,15,42,2.70
2009,02,25,15,43,2.80
2009,02,25,15,44,2.80
2009,02,25,15,45,2.90
2009,02,25,15,46,3.00
2009,02,25,15,47,3.10
2009,02,25,15,48,3.20
2009,02,25,15,49,3.30
2009,02,25,15,50,3.40
2009,02,25,15,51,3.40
2009,02,25,15,52,3.40
2009,02,25,15,53,3.40
2009,02,25,15,54,3.40
2009,02,25,15,55,3.40
2009,02,25,15,56,3.40
2009,02,25,15,57,3.30
2009,02,25,15,58,3.30
2009,02,25,15,59,3.30
2009,02,25,16,00,3.20
2009,02,25,16,01,3.20
2009,02,25,16,02,3.20
2009,02,25,16,03,3.30
2009,02,25,16,04,3.30
2009,02,25,16,05,3.30
2009,02,25,16,06,3.30
2009,02,25,16,07,3.30
2009,02,25,16,08,3.40
2009,02,25,16,09,3.50
2009,02,25,16,10,3.50
2009,02,25,16,11,3.50
2009,02,25,16,12,3.40
2009,02,25,16,13,3.40
2009,02,25,16,14,3.30
2009,02,25,16,15,3.30
2009,02,25,16,16,3.30
2009,02,25,16,17,3.30
2009,02,25,16,18,3.20
2009,02,25,16,19,3.10
2009,02,25,16,20,3.00
2009,02,25,16,21,3.00
2009,02,25,16,22,2.90
2009,02,25,16,23,2.90
2009,02,25,16,24,2.90
2009,02,25,16,25,2.80
2009,02,25,16,26,2.80
2009,02,25,16,27,2.80
2009,02,25,16,28,2.70
2009,02,25,16,29,2.70
2009,02,25,16,30,2.70
2009,02,25,16,31,2.70
2009,02,25,16,32,2.60
2009,02,25,16,33,2.60
2009,02,25,16,34,2.60
2009,02,25,16,35,2.60
2009,02,25,16,36,2.60
2009,02,25,16,37,2.50
2009,02,25,16,38,2.50
2009,02,25,16,39,2.40
2009,02,25,16,40,2.40
2009,02,25,16,41,2.40
2009,02,25,16,42,2.30
2009,02,25,16,43,2.30
2009,02,25,16,44,2.30
2009,02,25,16,45,2.30
2009,02,25,16,46,2.30
2009,02,25,16,47,2.30
2009,02,25,16,48,2.30
2009,02,25,16,49,2.20
2009,02,25,16,50,2.20
2009,02,25,16,51,2.20
2009,02,25,16,52,2.10
2009,02,25,16,53,2.10
2009,02,25,16,54,2.00
2009,02,25,16,55,2.00
2009,02,25,16,56,1.90
2009,02,25,16,57,1.90
2009,02,25,16,58,1.80
2009,02,25,16,59,1.80
2009,02,25,17,00,1.70
2009,02,25,17,01,1.70
2009,02,25,17,02,1.60
2009,02,25,17,03,1.60
2009,02,25,17,04,1.50
2009,02,25,17,05,1.40
2009,02,25,17,06,1.40
2009,02,25,17,07,1.40
2009,02,25,17,08,1.30
2009,02,25,17,09,1.30
2009,02,25,17,10,1.30
2009,02,25,17,11,1.30
2009,02,25,17,12,1.30
2009,02,25,17,13,1.30
2009,02,25,17,14,1.30
2009,02,25,17,15,1.20
2009,02,25,17,16,1.20
2009,02,25,17,17,1.20
2009,02,25,17,18,1.20
2009,02,25,17,19,1.20
2009,02,25,17,20,1.20
2009,02,25,17,21,1.20
2009,02,25,17,22,1.20
2009,02,25,17,23,1.20
2009,02,25,17,24,1.20
2009,02,25,17,25,1.10
2009,02,25,17,26,1.10
2009,02,25,17,27,1.00
2009,02,25,17,28,1.00
2009,02,25,17,29,1.00
2009,02,25,17,30,1.00
2009,02,25,17,31,0.90
2009,02,25,17,32,0.80
2009,02,25,17,33,0.80
2009,02,25,17,34,0.70
2009,02,25,17,35,0.60
2009,02,25,17,36,0.60
2009,02,25,17,37,0.50
2009,02,25,17,38,0.40
2009,02,25,17,39,0.40
2009,02,25,17,40,0.40
2009,02,25,17,41,0.30
2009,02,25,17,42,0.30
2009,02,25,17,43,0.30
2009,02,25,17,44,0.30
2009,02,25,17,45,0.30
2009,02,25,17,46,0.30
2009,02,25,17,47,0.30
2009,02,25,17,48,0.30
2009,02,25,17,49,0.30
2009,02,25,17,50,0.30
2009,02,25,17,51,0.30
2009,02,25,17,52,0.30
2009,02,25,17,53,0.30
2009,02,25,17,54,0.30
2009,02,25,17,55,0.30
2009,02,25,17,56,0.30
2009,02,25,17,57,0.30
2009,02,25,17,58,0.20
2009,02,25,17,59,0.20
2009,02,25,18,00,0.20
2009,02,25,18,01,0.20
2009,02,25,18,02,0.20
2009,02,25,18,03,0.20
2009,02,25,18,04,0.10
2009,02,25,18,05,0.10
2009,02,25,18,06,0.10
2009,02,25,18,07,0.10
2009,02,25,18,08,0.10
2009,02,25,18,09,0.10
2009,02,25,18,10,0.10
2009,02,25,18,11,0.10
2009,02,25,18,12,0.10
2009,02,25,18,13,0.10
2009,02,25,18,14,0.10
2009,02,25,18,15,0.00
2009,02,25,18,16,0.00
2009,02,25,18,17,-0.10
2009,02,25,18,18,-0.10
2009,02,25,18,19,-0.20
2009,02,25,18,20,-0.20
2009,02,25,18,21,-0.20
2009,02,25,18,22,-0.20
2009,02,25,18,23,-0.20
2009,02,25,18,24,-0.20
2009,02,25,18,25,-0.30
2009,02,25,18,26,-0.30
2009,02,25,18,27,-0.30
2009,02,25,18,28,-0.30
2009,02,25,18,29,-0.30
2009,02,25,18,30,-0.30
2009,02,25,18,31,-0.30
2009,02,25,18,32,-0.30
2009,02,25,18,33,-0.30
2009,02,25,18,34,-0.30
2009,02,25,18,35,-0.30
2009,02,25,18,36,-0.30
2009,02,25,18,37,-0.30
2009,02,25,18,38,-0.30
2009,02,25,18,39,-0.30
2009,02,25,18,40,-0.30
2009,02,25,18,41,-0.30
2009,02,25,18,42,-0.30
2009,02,25,18,43,-0.30
2009,02,25,18,44,-0.30
2009,02,25,18,45,-0.20
2009,02,25,18,46,-0.20
2009,02,25,18,47,-0.20
2009,02,25,18,48,-0.20
2009,02,25,18,49,-0.20
2009,02,25,18,50,-0.20
2009,02,25,18,51,-0.20
2009,02,25,18,52,-0.20
2009,02,25,18,53,-0.20
2009,02,25,18,54,-0.20